Location: La Fredeussais
(48.1780°N, 1.3980°W)
Time: 08:33:31
(UTC+00:00)

Cosmos 2369 Rocket - Pass Details

Date: 09 May 2021
Orbit: 827 x 854 km, 71.0° (Epoch: 12 June)

Event Time Altitude Azimuth Distance (km) Brightness Sun altitude
Exits shadow 22:48:10 22° 98° (E) 1,761 3.6 -22.2°
Drops below altitude 10° 22:52:10 10° 53° (NE) 2,460 4.8 -22.4°
Sets 22:55:07 0° 38° (NE) 3,404 5.8 -22.5°
